Location: Cold Norton
(51.6667°N, 0.6667°E)
Time: 01:07:29
(UTC+00:00)

Resurs 01 Rocket - Pass Details

Date: 18 November 2025
Orbit: 626 x 637 km, 97.7° (Epoch: 13 December)

Event Time Altitude Azimuth Distance (km) Brightness Sun altitude
Exits shadow 17:30:10 16° 47° (NE) 1,646 3.2 -13.2°
Drops below altitude 10° 17:32:22 10° 18° (NNE) 2,037 3.9 -13.6°
Sets 17:35:13 0° 358° (N) 2,950 4.9 -14.0°
